Home   Weather   Périgueux   Past weeks

Flag for France Past Weather in Périgueux, Aquitaine, France — Yesterday and Last 2 Weeks

Now
57 °F

Sunny.


Feels Like: 56 °F
Forecast: 33 / 54 °F
Wind: 6 mph from East

Location: Bergerac Airport

Current Time: Dec 6, 2016 at 5:07:02 pm

Latest Report: Dec 6, 2016 at 4:30 pm


Visibility: 10 mi

Pressure: 30.33 "Hg

Humidity: 63%

Dew Point: 45 °F

Location of PérigueuxLocation

Past Weather in Périgueux — Graph

°F

Périgueux Temperature Yesterday

Maximum temperature yesterday: 64 °F (at 2:30 pm)
Minimum temperature yesterday: 36 °F (at 7:00 am)
Average temperature yesterday: 48 °F

High & Low Weather Summary for the Past Weeks

 TemperatureHumidityPressure
High66 °F (Nov 27, 3:00 pm)100% (Nov 21, 11:00 pm)30.48 "Hg (Nov 21, 11:00 pm)
Low23 °F (Dec 2, 7:30 am)46% (Nov 27, 4:00 pm)29.47 "Hg (Nov 21, 4:00 pm)
Average44 °F88%30.01 "Hg
* Reported Nov 21 4:00 pm — Dec 6 4:00 pm, Périgueux, Weather by CustomWeather, © 2016

Note: Actual official high and low records may vary slightly from our data, if they occured in-between our weather recording intervals... More about our weather records

Advertising

Périgueux Weather History for the Previous 24 Hours

Scroll right to see more
 ConditionsComfort  
Time TempWeatherWind HumidityBarometerVisibility
4:00 pm
Tue, Dec 6
61 °FSunny.6 mph59%30.33 "Hg10 mi
3:30 pm61 °FSunny.6 mph59%30.33 "Hg10 mi
3:00 pm61 °FSunny.5 mph59%30.33 "Hg10 mi
2:30 pm59 °FSunny.3 mph63%30.33 "Hg10 mi
2:00 pm59 °FSunny.3 mph63%30.36 "Hg10 mi
1:30 pm57 °FSunny.2 mph67%30.36 "Hg10 mi
1:00 pm57 °FPassing clouds.5 mph67%30.36 "HgN/A
12:30 pm57 °FPassing clouds.3 mph67%30.36 "HgN/A
12:00 pm54 °FPassing clouds.5 mph72%30.39 "HgN/A
11:30 am52 °FSunny.6 mph77%30.39 "Hg10 mi
11:00 am48 °FPassing clouds.5 mph87%30.39 "HgN/A
10:30 am46 °FSunny.5 mph87%30.36 "Hg10 mi
10:00 am43 °FSunny.1 mph93%30.36 "Hg10 mi
9:30 am37 °FClear.2 mph100%30.33 "Hg4 mi
9:00 am36 °FClear.No wind100%30.33 "Hg4 mi
8:30 am34 °FFog.3 mph100%30.33 "Hg2 mi
8:00 am34 °FClear.2 mph93%30.33 "Hg5 mi
7:30 am34 °FFog.2 mph100%30.33 "Hg3 mi
7:00 am34 °FClear.5 mph100%30.30 "Hg4 mi
6:30 am34 °FClear.1 mph100%30.30 "Hg6 mi
6:00 am34 °FClear.1 mph100%30.30 "Hg5 mi
5:30 am34 °FClear.2 mph100%30.30 "Hg10 mi
5:00 am36 °FClear.2 mph93%30.30 "Hg5 mi
4:30 am36 °FClear.2 mph100%30.30 "Hg4 mi
4:00 am37 °FClear.2 mph93%30.30 "Hg4 mi
3:30 am37 °FClear.1 mph93%30.27 "Hg4 mi
3:00 am37 °FClear.2 mph100%30.27 "Hg4 mi
2:30 am37 °FClear.2 mph100%30.27 "Hg6 mi
2:00 am37 °FFog.3 mph100%30.27 "Hg3 mi
1:30 am37 °FClear.2 mph100%30.27 "Hg4 mi
1:00 am39 °FClear.No wind100%30.27 "Hg4 mi
12:30 am41 °FPassing clouds.2 mph93%30.27 "Hg5 mi
12:00 am43 °FPassing clouds.3 mph87%30.27 "HgN/A
11:30 pm
Mon, Dec 5
46 °FPassing clouds.No wind82%30.27 "HgN/A
11:00 pm48 °FClear.3 mph82%30.27 "Hg10 mi
10:30 pm48 °FPassing clouds.3 mph82%30.24 "HgN/A
10:00 pm48 °FPassing clouds.5 mph82%30.24 "HgN/A
9:30 pm50 °FPassing clouds.5 mph82%30.24 "HgN/A
9:00 pm52 °FPassing clouds.6 mph77%30.24 "HgN/A
8:30 pm52 °FPassing clouds.5 mph77%30.24 "HgN/A
8:00 pm52 °FPassing clouds.5 mph77%30.21 "HgN/A
7:30 pm50 °FPassing clouds.3 mph82%30.21 "HgN/A
7:00 pm50 °FPassing clouds.3 mph88%30.21 "HgN/A
6:30 pm48 °FPassing clouds.2 mph87%30.21 "HgN/A
6:00 pm52 °FOvercast.2 mph77%30.18 "Hg4 mi
5:30 pm55 °FPassing clouds.2 mph72%30.18 "HgN/A
5:00 pm57 °FPartly sunny.5 mph67%30.18 "HgN/A
Weather by CustomWeather, © 2016

See weather overviewHow to use our weather pages